Weather History for K14Y - October, 2013

Change the Weather History Date:

Tuesday, October 1, 2013

  Actual Average (KAXN) Record (KAXN)
Temperature  
Mean Temperature 55 °F -  
Max Temperature 68 °F 64 °F 85 °F (1951)
Min Temperature 42 °F 42 °F 26 °F (1974)
Degree Days  
Heating Degree Days 10    
Growing Degree Days 5 (Base 50)    
Moisture  
Dew Point 42 °F    
Average Humidity 57    
Maximum Humidity 93    
Minimum Humidity 26    
Precipitation  
Precipitation 0.00 in - - ()
Sea Level Pressure  
Sea Level Pressure 29.80 in    
Wind  
Wind Speed 8 mph (SW)    
Max Wind Speed 18 mph    
Max Gust Speed 24 mph    
Visibility 10 miles    
Events      
Averages and records for this station are not official NWS values.
T = Trace of Precipitation, MM = Missing Value Source: NWS Daily Summary

Daily Weather History Graph

Daily Weather History Graph

Search for Another Location

Airport or City:

Trip Planner

Search our weather history database for the weather conditions in past years. The results will help you decide how hot, cold, wet, or windy it might be!

Date:

Astronomy

Oct. 01, 2013 Rise Set
Actual Time 7:18 AM CDT 6:59 PM CDT
Civil Twilight 6:48 AM CDT 7:28 PM CDT
Nautical Twilight 6:13 AM CDT 8:03 PM CDT
Astronomical Twilight 5:38 AM CDT 8:38 PM CDT
Moon 3:44 AM CDT (10/1) 5:10 PM CDT (10/1)
Length of Visible Light 12h 40m
Length of Day
11h 40m
Waning Crescent, 12% of the Moon is Illuminated
Oct 1
Waning Crescent
Oct 4
New
Oct 11
First Quarter
Oct 18
Full
Oct 26
Last Quarter

Hourly Weather History & Observations

Time (CDT) Temp. Windchill Dew Point Humidity Pressure Visibility Wind Dir Wind Speed Gust Speed Precip Events Conditions
12:14 AM 59.0 °F - 51.8 °F 77% 29.56 in 10.0 mi SE 4.6 mph - N/A   Clear
12:34 AM 59.0 °F - 51.8 °F 77% 29.56 in 10.0 mi SE 3.5 mph - N/A   Clear
12:55 AM 60.8 °F - 51.8 °F 72% 29.56 in 10.0 mi South 4.6 mph - N/A   Clear
1:15 AM 60.8 °F - 51.8 °F 72% 29.53 in 10.0 mi ESE 10.4 mph - N/A   Scattered Clouds
1:34 AM 60.8 °F - 51.8 °F 72% 29.53 in 10.0 mi SSE 6.9 mph - N/A   Scattered Clouds
1:54 AM 60.8 °F - 51.8 °F 72% 29.54 in 10.0 mi SSE 5.8 mph - N/A   Clear
2:14 AM 62.6 °F - 51.8 °F 68% 29.55 in 10.0 mi South 8.1 mph - N/A   Clear
2:34 AM 60.8 °F - 51.8 °F 72% 29.55 in 10.0 mi South 9.2 mph - N/A   Scattered Clouds
2:55 AM 60.8 °F - 51.8 °F 72% 29.55 in 10.0 mi South 6.9 mph - N/A   Clear
3:15 AM 59.0 °F - 50.0 °F 72% 29.56 in 10.0 mi South 4.6 mph - N/A   Clear
3:34 AM 59.0 °F - 50.0 °F 72% 29.56 in 10.0 mi Calm Calm - N/A   Clear
3:55 AM 59.0 °F - 50.0 °F 72% 29.55 in 10.0 mi WNW 4.6 mph - N/A   Clear
4:14 AM 57.2 °F - 50.0 °F 77% 29.61 in 10.0 mi SW 5.8 mph - N/A   Clear
4:34 AM 59.0 °F - 50.0 °F 72% 29.61 in 10.0 mi West 3.5 mph - N/A   Clear
4:54 AM 59.0 °F - 50.0 °F 72% 29.63 in 10.0 mi West 9.2 mph - N/A   Clear
5:15 AM 59.0 °F - 50.0 °F 72% 29.65 in 10.0 mi WNW 10.4 mph - N/A   Scattered Clouds
5:35 AM 59.0 °F - 46.4 °F 63% 29.66 in 10.0 mi West 10.4 mph - N/A   Scattered Clouds
5:55 AM 57.2 °F - 46.4 °F 67% 29.67 in 10.0 mi West 8.1 mph - N/A   Clear
6:14 AM 57.2 °F - 46.4 °F 67% 29.69 in 10.0 mi West 8.1 mph - N/A   Clear
6:35 AM 55.4 °F - 44.6 °F 67% 29.71 in 10.0 mi West 9.2 mph - N/A   Clear
6:55 AM 55.4 °F - 44.6 °F 67% 29.72 in 10.0 mi West 8.1 mph - N/A   Clear
7:14 AM 55.4 °F - 44.6 °F 67% 29.73 in 10.0 mi West 9.2 mph - N/A   Clear
7:34 AM 53.6 °F - 44.6 °F 72% 29.75 in 10.0 mi West 9.2 mph - N/A   Clear
7:55 AM 53.6 °F - 44.6 °F 72% 29.76 in 10.0 mi WSW 8.1 mph - N/A   Clear
8:15 AM 53.6 °F - 44.6 °F 72% 29.78 in 10.0 mi WSW 6.9 mph - N/A   Clear
8:34 AM 55.4 °F - 44.6 °F 67% 29.80 in 10.0 mi WSW 8.1 mph - N/A   Clear
8:54 AM 55.4 °F - 44.6 °F 67% 29.80 in 10.0 mi WSW 8.1 mph - N/A   Clear
9:14 AM 57.2 °F - 44.6 °F 63% 29.81 in 10.0 mi SW 9.2 mph - N/A   Clear
9:35 AM 57.2 °F - 44.6 °F 63% 29.82 in 10.0 mi SW 9.2 mph - N/A   Clear
9:55 AM 59.0 °F - 42.8 °F 55% 29.83 in 10.0 mi WSW 10.4 mph - N/A   Clear
10:15 AM 59.0 °F - 41.0 °F 51% 29.84 in 10.0 mi WSW 11.5 mph 17.3 mph N/A   Clear
10:35 AM 59.0 °F - 41.0 °F 51% 29.84 in 10.0 mi WSW 11.5 mph - N/A   Clear
10:54 AM 60.8 °F - 39.2 °F 45% 29.84 in 10.0 mi West 11.5 mph 17.3 mph N/A   Clear
11:14 AM 62.6 °F - 39.2 °F 42% 29.85 in 10.0 mi WSW 11.5 mph 18.4 mph N/A   Clear
11:35 AM 62.6 °F - 39.2 °F 42% 29.86 in 10.0 mi WSW 17.3 mph 20.7 mph N/A   Clear
11:55 AM 62.6 °F - 37.4 °F 39% 29.86 in 10.0 mi WSW 17.3 mph 24.2 mph N/A   Clear
12:15 PM 62.6 °F - 37.4 °F 39% 29.86 in 10.0 mi WSW 12.7 mph 19.6 mph N/A   Clear
12:35 PM 64.4 °F - 35.6 °F 34% 29.87 in 10.0 mi WSW 13.8 mph 21.9 mph N/A   Clear
12:54 PM 64.4 °F - 35.6 °F 34% 29.87 in 10.0 mi WSW 18.4 mph 23.0 mph N/A   Clear
1:15 PM 64.4 °F - 35.6 °F 34% 29.87 in 10.0 mi SW 16.1 mph 24.2 mph N/A   Clear
1:35 PM 64.4 °F - 35.6 °F 34% 29.87 in 10.0 mi WSW 10.4 mph 20.7 mph N/A   Clear
1:55 PM 66.2 °F - 35.6 °F 32% 29.87 in 10.0 mi SW 12.7 mph 23.0 mph N/A   Clear
2:15 PM 66.2 °F - 33.8 °F 30% 29.87 in 10.0 mi WSW 15.0 mph 21.9 mph N/A   Clear
2:35 PM 66.2 °F - 35.6 °F 32% 29.87 in 10.0 mi WSW 13.8 mph 19.6 mph N/A   Clear
2:55 PM 68.0 °F - 35.6 °F 30% 29.88 in 10.0 mi WSW 15.0 mph 24.2 mph N/A   Clear
3:15 PM 68.0 °F - 35.6 °F 30% 29.88 in 10.0 mi SW 16.1 mph 21.9 mph N/A   Clear
3:35 PM 68.0 °F - 35.6 °F 30% 29.88 in 10.0 mi WSW 10.4 mph 20.7 mph N/A   Clear
3:55 PM 68.0 °F - 33.8 °F 28% 29.88 in 10.0 mi WSW 15.0 mph 23.0 mph N/A   Clear
4:15 PM 68.0 °F - 33.8 °F 28% 29.88 in 10.0 mi SW 11.5 mph 21.9 mph N/A   Clear
4:34 PM 68.0 °F - 33.8 °F 28% 29.88 in 10.0 mi WSW 10.4 mph 23.0 mph N/A   Clear
4:55 PM 68.0 °F - 32.0 °F 26% 29.89 in 10.0 mi WSW 15.0 mph 21.9 mph N/A   Clear
5:15 PM 68.0 °F - 32.0 °F 26% 29.89 in 10.0 mi WSW 12.7 mph - N/A   Clear
5:35 PM 68.0 °F - 32.0 °F 26% 29.89 in 10.0 mi WSW 11.5 mph 19.6 mph N/A   Clear
5:54 PM 66.2 °F - 32.0 °F 28% 29.90 in 10.0 mi WSW 6.9 mph - N/A   Clear
6:15 PM 64.4 °F - 33.8 °F 32% 29.90 in 10.0 mi SW 5.8 mph - N/A   Clear
6:35 PM 62.6 °F - 35.6 °F 37% 29.90 in 10.0 mi SW 4.6 mph - N/A   Clear
6:55 PM 60.8 °F - 35.6 °F 39% 29.90 in 10.0 mi SW 3.5 mph - N/A   Clear
7:15 PM 59.0 °F - 35.6 °F 42% 29.91 in 10.0 mi SW 4.6 mph - N/A   Clear
7:35 PM 55.4 °F - 37.4 °F 51% 29.92 in 10.0 mi South 4.6 mph - N/A   Clear
7:54 PM 51.8 °F - 41.0 °F 67% 29.93 in 10.0 mi SSW 4.6 mph - N/A   Clear
8:15 PM 53.6 °F - 37.4 °F 54% 29.93 in 10.0 mi WSW 4.6 mph - N/A   Clear
8:35 PM 50.0 °F - 41.0 °F 71% 29.93 in 10.0 mi SSW 4.6 mph - N/A   Clear
8:55 PM 50.0 °F - 39.2 °F 66% 29.94 in 10.0 mi South 4.6 mph - N/A   Clear
9:15 PM 50.0 °F - 37.4 °F 62% 29.94 in 10.0 mi SW 5.8 mph - N/A   Clear
9:34 PM 46.4 °F 44.3 °F 41.0 °F 81% 29.95 in 10.0 mi South 4.6 mph - N/A   Clear
9:54 PM 46.4 °F - 41.0 °F 81% 29.95 in 10.0 mi Calm Calm - N/A   Clear
10:14 PM 44.6 °F 41.4 °F 41.0 °F 87% 29.96 in 10.0 mi SSW 5.8 mph - N/A   Clear
10:35 PM 46.4 °F 44.3 °F 39.2 °F 76% 29.97 in 10.0 mi SSW 4.6 mph - N/A   Clear
10:55 PM 46.4 °F - 37.4 °F 71% 29.97 in 10.0 mi Calm Calm - N/A   Clear
11:15 PM 42.8 °F - 41.0 °F 93% 29.98 in 10.0 mi Calm Calm - N/A   Clear
11:35 PM 42.8 °F - 39.2 °F 87% 29.98 in 10.0 mi Calm Calm - N/A   Clear
11:54 PM 42.8 °F - 39.2 °F 87% 29.99 in 10.0 mi Calm Calm - N/A   Clear